Wind_Speed
7 5 4 4 4 5 6 8 10 10 11 11 11 6 1 2 2 4 4 4 5 6 9 9 11 11 12 13 15 15 12 8 4 2 3 4 4 3 2 4 7 7 7
7 6 5 2 2 4 6 8 9 11 12 13 14 11 8 5 2 2 2 1 1 1 2 4 6 10 12 13 12 12 12 10 11 7 4 3 1 3 5 6 8 8 6
8 7 5 2 1 2 4 7 9 10 13 13 15 17 15 14 13 11 9 9 7 6 5 4 2 7 11 13 13 10 8 5 5 3 1 0 2 3 6 10 10 11 11
8 6 6 4 1 1 4 6 10 12 14 15 15 15 15 13 13 12 12 13 13 12 10 8 7 6 7 5 5 4 4 4 2 0 1 2 2 3 4 6 7 8 10
9 9 8 5 4 3 4 7 9 10 13 13 13 14 14 17 15 14 14 15 16 16 15 14 12 9 7 6 4 3 3 4 4 5 5 8 11 7 7 1 7 10 13
10 10 8 7 7 6 6 7 8 10 12 11 12 12 13 13 8 9 11 13 13 14 15 16 14 12 11 9 7 6 5 5 5 6 7 8 10 7 5 4 11 5 4
10 9 9 9 11 10 9 7 8 9 13 13 11 11 12 13 10 11 12 14 14 14 13 13 14 15 15 15 19 18 17 13 12 10 11 8 7 9 6 6 6 6 5
12 11 10 12 12 13 12 11 10 8 11 13 11 10 13 14 11 11 12 14 15 16 16 15 15 14 15 15 17 21 22 22 20 18 16 14 13 12 10 9 11 14 12
8 14 15 15 17 18 15 11 10 9 11 13 11 10 11 12 9 9 12 14 15 16 15 14 14 14 13 14 14 16 17 18 20 21 20 19 17 13 8 6 5 1 6
4 8 12 18 19 18 17 12 10 10 12 14 13 11 11 11 9 8 11 12 14 15 15 16 15 13 10 10 11 11 13 12 11 12 13 14 16 17 17 15 10 7 4
3 3 13 20 21 20 18 14 13 13 14 16 14 12 11 9 9 7 9 10 12 14 13 12 13 11 11 10 11 11 12 13 14 15 13 13 14 16 15 14 12 10 7
2 3 9 15 20 20 18 18 15 14 12 13 14 15 12 11 9 8 8 10 13 15 15 12 12 10 11 13 16 15 13 12 10 10 11 11 11 11 10 10 10 10 9
7 7 7 10 14 17 19 19 15 16 18 18 16 15 14 14 15 12 12 13 13 15 13 15 15 15 17 16 15 14 11 9 9 11 11 10 10 10 8 7 8 8 9
10 11 11 13 14 14 14 14 17 15 16 16 17 13 13 12 14 14 14 14 15 19 16 13 14 14 14 14 12 13 12 11 10 11 10 9 8 9 9 8 8 6 6
11 12 13 16 17 17 15 13 13 12 12 14 10 11 12 11 12 14 14 12 11 13 13 9 8 10 10 10 10 9 9 9 10 9 9 8 8 8 8 7 7 6 6
13 11 10 13 17 18 18 18 12 10 8 8 11 11 12 17 16 13 13 14 14 12 7 8 7 7 6 6 6 6 7 7 8 8 9 8 8 7 6 6 6 6 5
14 14 14 12 12 13 11 13 14 15 13 12 11 15 16 16 13 11 13 12 11 10 8 7 6 5 4 4 4 5 5 6 6 7 7 6 6 5 5 5 5 5 4
14 14 13 13 12 11 10 10 9 9 10 9 11 12 12 12 11 10 11 10 8 6 6 5 5 5 4 3 3 4 5 5 5 4 5 6 6 5 4 4 4 4 3
13 14 13 13 12 12 11 10 9 9 9 9 9 8 8 8 7 8 8 3 4 4 4 4 5 5 4 4 3 3 2 3 2 2 2 2 4 3 2 2 2 2 3
15 17 14 12 11 10 9 8 8 8 8 8 8 8 7 6 5 5 6 6 5 6 6 6 7 7 7 6 4 3 1 4 5 4 3 2 1 2 2 2 2 2 1
13 12 11 9 8 7 6 6 6 5 5 5 6 8 9 6 4 4 3 4 6 5 6 7 8 9 10 9 7 5 3 2 4 6 6 5 4 4 3 3 3 2 3
9 8 7 6 6 6 5 6 6 6 6 6 6 9 11 10 8 8 8 7 8 7 7 7 7 9 9 10 9 8 6 5 5 7 9 8 6 5 5 5 4 4 4
7 6 5 5 6 7 8 9 10 10 10 10 9 9 11 13 12 12 12 10 10 10 10 9 8 8 7 8 9 8 9 9 10 10 11 10 9 7 6 6 6 6 5
7 6 8 9 10 12 12 13 13 15 13 12 13 14 14 14 14 14 15 13 12 12 11 10 9 10 9 9 9 10 10 11 11 11 12 11 10 8 8 8 8 7 6
5 4 7 8 9 9 10 11 12 12 12 13 14 15 16 17 17 17 16 15 15 15 14 13 12 12 14 14 13 12 12 12 10 11 10 11 10 9 10 10 9 8 8
2 4 6 7 7 9 9 8 8 9 10 11 13 14 16 17 18 18 18 17 17 17 17 16 17 17 16 16 16 17 17 13 12 12 10 10 10 10 12 12 10 9 9
Wind_Direction
145 162 131 73 16 2 9 23 22 18 21 32 37 42 11 295 252 213 223 211 217 226 234 234 233 223 213 210 208 207 207 205 211 238 257 319 341 5 77 125 147 142 168
162 153 132 103 25 8 22 34 36 36 43 47 55 62 69 65 76 52 60 50 284 330 247 237 223 219 219 214 209 216 222 236 218 216 242 264 190 132 111 110 106 109 111
169 162 157 168 122 48 44 53 48 51 57 58 65 68 72 78 85 86 85 82 80 87 86 102 152 216 205 225 226 201 175 179 204 165 107 82 129 113 94 98 94 95 91
175 173 185 195 219 96 89 78 74 67 70 64 67 70 70 67 71 84 90 92 92 91 95 95 88 74 69 85 102 102 115 131 127 282 153 204 176 144 139 115 89 81 91
182 193 197 182 205 161 128 104 89 86 81 78 72 71 72 76 76 82 82 88 93 95 96 96 91 93 90 85 85 76 69 58 61 61 63 68 51 55 27 104 104 106 81
199 208 186 167 187 168 166 127 110 103 94 82 73 74 74 75 76 87 94 90 87 85 83 84 83 81 73 65 59 61 69 74 66 75 55 63 44 39 48 112 143 135 103
213 208 191 183 184 179 166 146 131 119 114 101 89 82 76 76 76 84 94 92 84 80 83 81 79 77 77 75 73 75 79 79 80 84 81 66 45 34 40 121 141 123 116
212 210 195 194 181 176 177 166 148 136 123 113 102 92 90 86 83 87 96 88 85 82 80 81 80 75 79 81 81 77 72 70 72 74 74 70 66 62 77 96 108 102 100
216 218 209 200 182 182 179 168 147 134 126 121 111 107 100 94 85 89 100 100 95 86 83 83 84 82 80 85 85 85 83 78 72 78 80 79 76 75 76 71 70 113 100
244 229 206 198 192 182 176 168 152 133 128 126 122 119 114 106 97 97 105 114 108 101 91 89 89 90 87 90 93 96 90 84 85 80 70 64 60 57 62 57 52 63 81
285 240 192 197 190 177 167 164 154 143 138 135 133 126 119 115 114 114 119 118 118 113 106 96 90 87 83 84 95 102 106 106 97 88 75 62 55 51 48 49 50 50 61
66 132 174 184 183 171 162 156 149 142 138 131 128 123 117 116 116 113 121 126 126 117 107 99 95 93 90 90 92 100 104 94 84 73 62 53 47 41 38 43 53 60 63
99 109 133 153 156 155 155 148 145 144 140 138 134 120 113 114 111 112 118 124 124 109 105 106 104 101 94 87 95 95 82 77 72 71 62 50 42 37 42 49 54 59 60
107 113 125 134 131 132 136 141 143 144 144 145 139 131 125 129 131 134 133 129 122 112 108 109 106 99 99 95 84 78 78 78 77 72 64 50 43 44 49 48 50 49 59
115 118 123 124 127 126 124 120 124 134 150 153 145 142 136 139 138 137 130 126 128 129 124 116 106 99 96 90 83 81 80 78 74 68 58 47 44 48 53 45 41 39 45
115 113 114 120 121 121 116 106 104 114 130 149 146 148 142 135 132 135 133 132 133 132 127 126 116 104 97 94 87 84 82 82 82 72 54 44 42 44 43 41 33 30 28
134 134 130 124 119 117 113 111 111 100 104 112 122 137 134 137 135 133 133 131 133 130 130 128 124 116 115 102 93 96 97 105 97 75 54 51 49 49 39 40 29 30 35
137 129 122 115 115 112 106 108 113 120 120 115 131 137 139 137 139 140 143 130 128 129 135 145 148 145 141 126 123 120 119 131 112 89 63 60 49 37 33 27 23 14 14
124 117 114 112 109 111 112 110 112 112 120 131 139 142 150 150 156 161 170 181 163 179 179 190 182 176 174 162 150 159 180 179 168 163 89 47 28 14 22 4 9 357 324
126 129 122 117 118 118 117 117 119 119 128 148 158 161 174 177 196 202 201 223 226 238 232 232 220 211 205 200 193 192 214 214 218 220 223 247 328 349 342 328 340 331 245
133 137 137 127 134 139 140 141 143 146 151 169 173 187 190 210 198 209 205 219 228 243 243 240 240 236 225 219 220 227 242 255 227 226 232 240 257 301 307 268 274 266 214
147 153 165 176 181 181 185 185 190 199 201 205 198 210 216 223 234 237 245 247 247 243 242 242 262 251 234 228 227 236 250 258 251 241 240 243 252 273 287 246 246 234 229
185 197 210 229 235 238 236 234 228 225 225 223 225 222 220 230 236 242 251 256 252 243 237 246 258 239 231 224 223 237 257 261 261 251 244 242 247 264 261 238 237 224 236
225 238 261 273 262 252 248 245 243 237 235 236 236 235 234 237 240 244 246 251 249 242 236 238 244 234 233 230 237 249 263 267 259 247 231 234 245 256 245 233 231 227 247
226 257 284 287 287 280 265 248 241 238 238 237 240 240 241 239 241 245 246 243 242 236 236 238 242 240 239 242 247 250 255 266 240 227 224 233 246 243 233 230 227 235 243
11 305 302 307 310 304 281 261 246 244 246 250 252 253 251 247 250 249 246 238 238 238 238 239 241 242 244 248 249 242 246 251 245 236 228 237 237 234 229 224 224 233 232
Height
807 811 811 811 813 813 811 808 805 803 800 796 793 792 792 792 793 794 795 797 798 799 801 802 805 807 808 810 812 813 815 815 816 817 818 818 817 816 815 813 813 814 814
808 809 809 811 812 814 813 810 807 804 802 799 796 794 794 794 794 795 796 797 798 800 800 802 804 806 808 809 810 811 811 813 814 813 815 816 816 816 816 815 814 814 815
807 807 808 811 812 813 813 811 809 806 804 802 800 799 799 798 797 798 798 799 800 800 802 804 806 807 807 808 808 808 808 812 813 814 814 815 815 816 816 816 817 815 815
805 806 809 812 813 813 812 811 809 809 807 806 805 804 803 803 802 802 802 803 803 803 804 805 806 807 807 807 809 810 811 812 812 813 814 815 816 816 816 816 817 816 817
802 806 809 810 814 814 812 811 811 810 810 810 811 809 808 806 806 807 807 807 807 807 807 808 809 810 811 810 811 812 812 813 813 814 815 816 817 817 817 817 818 819 820
803 806 807 808 812 813 813 812 812 811 810 812 813 812 812 811 811 811 811 812 812 812 812 813 813 813 814 814 815 815 815 815 815 816 818 819 820 819 819 818 819 821 823
803 805 806 807 810 811 813 814 814 813 811 812 815 816 816 815 816 815 815 816 816 816 816 818 818 818 819 820 820 818 817 817 817 818 820 822 823 822 821 821 821 822 824
800 803 804 807 809 811 814 814 814 816 814 814 817 819 819 819 820 820 820 821 820 820 821 822 823 823 824 824 825 824 824 823 823 823 824 825 825 825 824 824 824 825 827
798 801 802 805 807 809 813 816 816 816 816 817 820 822 823 822 822 822 822 823 824 825 825 826 827 828 829 830 830 830 830 830 830 829 829 829 829 828 828 829 829 828 828
797 797 799 801 806 809 812 815 816 817 818 818 821 823 824 825 825 825 825 826 827 828 829 829 831 832 833 833 833 834 834 835 834 834 834 834 833 833 831 831 831 830 830
799 796 797 800 803 805 808 813 814 816 818 818 821 824 825 827 827 827 828 829 830 830 831 833 834 835 835 836 835 835 836 836 836 836 836 837 837 836 836 835 834 834 833
799 798 799 800 802 803 807 810 813 816 820 821 823 824 827 827 828 829 830 832 831 831 833 836 837 838 838 838 838 838 839 839 839 839 840 840 839 840 840 839 838 837 837
799 801 803 804 804 804 807 810 815 815 819 821 824 826 828 831 831 832 833 834 835 836 838 839 841 841 842 843 842 841 842 841 842 841 843 844 844 843 842 842 841 840 840
802 804 806 807 808 810 812 814 816 819 820 823 825 828 830 833 834 834 836 837 838 839 843 845 844 844 845 846 846 845 845 845 845 845 845 846 846 845 844 844 843 842 842
806 808 810 810 811 814 817 819 819 823 824 826 829 831 832 835 836 838 840 841 843 842 845 848 849 848 849 848 849 848 848 847 847 847 848 848 848 847 847 847 846 845 844
809 812 815 816 818 819 819 821 824 826 828 830 831 833 835 836 838 841 842 842 843 845 848 848 851 851 851 850 850 850 849 850 849 849 849 850 850 849 849 849 848 847 846
812 816 818 822 823 823 825 826 829 831 832 834 836 838 839 839 842 844 845 845 845 846 848 850 852 852 852 852 851 850 851 851 851 851 851 852 851 851 850 850 849 848 847
817 821 822 823 825 827 827 830 833 834 837 840 841 842 843 843 844 846 847 846 850 848 849 851 852 853 853 853 852 851 851 852 852 852 853 853 853 852 851 851 850 849 848
821 822 824 826 827 828 831 833 836 837 839 842 844 845 846 846 848 847 849 849 848 850 850 852 852 852 853 853 852 852 851 851 852 853 853 854 854 853 852 851 850 850 849
822 823 826 829 831 833 835 836 838 839 840 843 843 844 846 846 848 848 846 849 848 850 850 850 851 852 852 852 852 851 850 851 852 852 853 854 854 853 851 850 849 848 848
825 828 829 831 833 835 836 836 838 839 840 842 842 843 844 846 844 846 845 847 848 848 848 848 849 849 849 850 850 849 849 849 850 851 852 853 852 851 850 849 849 848 847
828 829 831 833 834 834 834 836 837 838 839 840 840 842 843 843 843 843 845 845 846 846 846 846 846 846 846 846 847 847 847 847 848 849 850 851 850 849 848 848 847 846 846
829 830 831 832 832 832 834 835 835 836 836 836 838 839 839 841 840 840 842 842 842 843 843 842 843 843 843 843 844 845 845 845 846 847 847 848 848 847 846 845 845 844 844
828 828 829 829 829 829 829 829 830 830 831 832 833 834 834 835 836 836 837 837 838 838 839 839 840 840 840 841 841 841 842 842 842 843 844 844 844 844 844 843 843 842 842
827 827 827 826 825 825 824 823 824 825 826 827 828 828 828 829 830 831 831 832 833 834 834 834 835 836 836 837 837 838 838 838 839 839 840 840 840 840 840 840 840 840 840
826 827 826 825 823 822 821 820 821 821 822 822 823 824 824 824 825 825 826 825 826 827 827 828 829 829 831 832 832 833 834 834 834 835 836 836 836 836 836 837 837 837 837